Temp
0 0 0 0 0 0 0 1 1 1 1 1 2 2 2 2 2 2 2 2 2 2 2 3 3 3 3 3 3 4 4 4 4 4 4 4 5 5 5 5 5 5 5 5 5 5 5 5 5 5 5 5 5 5 5 6 6 6 6 6 6 6 6 6 6 7 7 7 7 7 7 7 8 8 8 8 9 9 9 9 10 10 10 10 10 11
-0 -0 -0 -0 -0 0 0 0 1 1 1 1 1 1 1 1 1 1 1 1 2 2 2 2 3 3 3 3 3 3 4 4 4 4 4 4 4 5 5 5 5 5 5 5 5 5 5 5 5 5 5 5 5 5 5 6 6 6 6 6 6 6 6 6 6 6 6 7 7 7 7 7 7 7 7 8 8 8 9 9 9 9 10 10 10 10
-0 -0 -0 -0 -0 0 0 0 1 1 1 1 1 1 1 1 1 1 1 1 2 2 2 2 3 3 3 3 3 3 4 4 4 4 4 4 4 4 5 5 5 5 5 5 5 5 5 5 5 5 5 5 5 5 5 5 5 5 5 6 6 6 6 6 6 6 6 6 6 6 6 6 7 7 7 7 7 8 8 8 9 9 9 9 9 10
-0 -0 -0 0 0 0 0 0 0 0 0 0 0 0 0 0 1 1 1 1 2 2 2 2 3 3 3 3 3 3 3 4 4 4 4 4 4 4 5 5 5 5 5 5 5 5 5 5 5 5 5 5 5 5 5 5 5 5 5 5 5 5 5 5 5 6 6 6 6 6 6 6 6 6 7 7 7 7 7 8 8 8 9 9 9 9
-0 -0 0 0 0 0 0 0 0 0 0 0 0 0 0 1 1 1 1 2 2 2 2 2 3 3 3 3 3 3 3 4 4 4 4 4 4 4 4 4 4 4 4 4 4 4 4 4 4 4 4 4 4 4 4 4 4 5 5 5 5 5 5 5 5 5 5 5 5 6 6 6 6 6 6 7 7 7 7 8 8 8 8 9 9 9
-0 -0 -0 -0 -0 -0 -0 -0 -0 0 0 0 0 0 1 1 1 1 2 2 2 2 2 3 3 3 3 3 3 3 3 4 4 4 4 4 4 4 4 4 4 4 4 4 4 4 4 4 4 4 4 4 4 4 4 4 4 4 4 4 4 5 5 5 5 5 5 5 5 5 5 6 6 6 6 6 6 7 7 7 8 8 8 8 9 9
-0 -0 -0 -0 -0 -0 -0 -0 -0 0 0 0 0 1 1 1 1 2 2 2 2 2 2 2 3 3 3 3 3 3 3 3 4 4 4 3 3 3 3 3 3 3 3 3 3 3 3 3 3 4 4 4 4 4 4 4 4 4 4 4 4 4 5 5 5 5 5 5 5 5 5 5 5 6 6 6 6 6 7 7 7 8 8 8 8 9
-1 -1 -1 -1 -1 -0 -0 -0 -0 0 0 0 1 1 1 1 1 2 2 2 2 2 2 2 3 3 3 3 3 3 3 3 3 3 3 3 3 3 3 3 3 3 3 3 3 3 3 3 3 3 3 3 3 4 4 4 4 4 4 4 4 4 4 5 5 5 5 5 5 5 5 5 6 6 6 6 6 6 6 7 7 7 7 8 8 8
-1 -1 -1 -1 -1 -0 -0 -0 0 0 0 0 1 1 1 1 1 1 2 2 2 2 2 3 3 3 3 3 3 3 3 3 3 3 3 3 3 3 3 3 3 3 3 3 3 3 3 3 3 3 3 3 3 3 3 4 4 4 4 4 4 4 4 5 5 5 5 5 5 5 5 6 6 6 6 6 6 6 6 7 7 7 7 8 8 8
-1 -1 -1 -1 -1 -0 -0 -0 -0 0 0 0 0 1 1 1 1 1 2 2 2 2 2 2 2 2 2 2 2 2 2 2 2 2 2 2 2 2 2 2 2 2 2 2 2 2 3 3 3 3 3 3 3 3 3 4 4 4 4 4 4 4 4 4 5 5 5 5 5 5 6 6 6 6 6 6 6 6 6 7 7 7 7 7 8 8
-1 -1 -1 -1 -1 -0 -0 -0 -0 0 0 0 0 0 1 1 1 1 1 2 2 2 2 2 2 2 2 2 2 2 2 2 2 2 2 2 2 2 2 2 2 2 2 2 2 2 2 3 3 3 3 3 3 3 3 3 3 4 4 4 4 4 4 4 4 5 5 5 5 5 5 6 6 6 6 6 6 6 6 6 7 7 7 7 7 8
-1 -1 -1 -1 -0 -0 -0 -0 -0 -0 0 0 0 0 1 1 1 1 1 1 1 1 1 1 1 1 1 1 1 1 1 1 1 1 1 1 1 1 2 2 2 2 2 2 2 2 2 2 2 3 3 3 3 3 3 3 3 3 3 3 4 4 4 4 4 4 4 5 5 5 5 5 5 5 5 5 5 5 6 6 6 6 6 7 7 7
-1 -1 -1 -0 -0 -0 -0 -0 -0 -0 0 0 0 0 1 1 1 1 1 1 1 1 1 1 1 1 1 1 1 1 1 1 1 1 1 1 1 1 1 1 1 2 2 2 2 2 2 2 2 2 2 2 2 3 3 3 3 3 3 3 3 3 3 4 4 4 4 4 5 5 5 5 5 5 5 5 5 5 5 5 5 6 6 6 6 6
-1 -1 -1 -1 -0 -0 -0 -0 -0 0 0 0 0 0 0 0 0 0 0 1 1 1 1 1 1 1 1 1 1 1 1 1 1 1 1 1 1 1 1 1 1 1 1 2 2 2 2 2 2 2 2 2 2 2 2 2 2 2 3 3 3 3 3 3 3 3 4 4 4 4 4 4 4 4 5 5 5 5 5 5 5 5 5 6 6 6
-1 -1 -1 -1 -0 -0 -0 -0 -0 -0 0 0 0 0 0 0 0 0 0 0 1 1 1 1 1 1 1 1 1 1 1 1 1 1 1 1 1 1 1 1 1 1 1 1 1 1 1 1 1 2 2 2 2 2 2 2 2 2 2 2 3 3 3 3 3 3 3 3 4 4 4 4 4 4 4 4 4 5 5 5 5 5 5 5 5 6
-1 -1 -1 -1 -0 -0 -0 -0 -0 -0 0 0 0 0 0 0 0 0 0 0 0 0 0 0 0 0 1 1 1 1 1 1 1 1 1 1 1 1 1 1 1 1 1 1 1 1 1 1 1 1 1 1 1 2 2 2 2 2 2 2 2 2 2 3 3 3 3 3 3 3 3 4 4 4 4 4 4 4 4 4 5 5 5 5 5 5
-1 -1 -1 -0 -0 -0 -0 -0 -0 -0 -0 -0 -0 -0 -0 -0 -0 -0 -0 -0 -0 -0 -0 -0 0 0 0 1 1 1 1 1 1 1 1 1 1 1 1 1 1 1 1 1 1 1 1 1 1 1 1 1 1 1 1 2 2 2 2 2 2 2 2 2 2 2 3 3 3 3 3 3 3 3 4 4 4 4 4 4 4 5 5 5 5 5
-1 -1 -0 -0 -0 -0 -0 -0 -0 -0 -0 -0 -0 -0 -0 -0 -1 -1 -1 -1 -1 -1 -1 -1 -0 -0 0 0 1 1 1 0 0 0 0 0 0 0 0 0 0 0 1 1 1 1 1 1 1 1 1 1 1 1 1 1 2 2 2 2 2 2 2 2 2 2 2 2 3 3 3 3 3 3 3 3 4 4 4 4 4 4 5 5 5 5
-0 -0 -0 -0 -0 -0 -0 -1 -1 -1 -1 -1 -1 -1 -1 -1 -1 -1 -1 -1 -1 -1 -1 -1 -1 -0 -0 0 0 0 0 -0 -0 -0 -0 -0 0 0 0 0 0 0 0 1 1 1 1 1 1 1 1 1 1 1 1 1 2 2 2 2 2 2 2 2 2 2 2 2 2 2 3 3 3 3 3 3 3 3 4 4 4 4 4 5 5 5
-1 -1 -1 -1 -1 -1 -1 -1 -1 -1 -1 -1 -1 -1 -1 -1 -1 -1 -1 -1 -1 -1 -1 -1 -1 -1 -1 -0 -0 -0 -0 -0 -1 -1 -0 -0 -0 0 0 0 0 0 0 1 1 1 1 1 1 1 1 1 1 1 1 1 1 2 2 2 2 2 2 2 2 2 2 2 2 2 3 3 3 3 3 3 3 3 3 3 4 4 4 4 5 5
-1 -1 -2 -2 -2 -2 -2 -2 -2 -2 -2 -2 -2 -2 -2 -2 -2 -1 -1 -1 -1 -1 -1 -1 -1 -1 -1 -0 -0 -0 -1 -1 -1 -1 -1 -0 -0 0 0 0 0 0 1 1 1 1 1 1 1 1 1 1 1 1 1 1 1 2 2 2 2 2 2 2 2 2 2 2 2 2 2 3 3 3 3 3 3 3 3 3 3 4 4 4 4 5
-2 -2 -2 -2 -2 -2 -2 -2 -2 -2 -2 -2 -2 -2 -2 -2 -2 -2 -1 -1 -1 -1 -1 -1 -1 -1 -1 -1 -1 -1 -1 -1 -1 -1 -1 -0 -0 0 0 0 0 0 0 1 1 1 1 1 1 1 1 1 1 1 1 1 1 1 1 2 2 2 2 2 2 2 2 2 2 2 2 2 3 3 3 3 3 3 3 3 3 3 4 4 4 4
-2 -2 -2 -2 -2 -2 -2 -2 -2 -2 -2 -2 -2 -2 -2 -2 -2 -2 -2 -2 -1 -1 -1 -1 -1 -1 -1 -1 -1 -1 -1 -1 -1 -1 -1 -1 -0 0 0 0 0 0 0 0 0 0 0 0 1 1 1 1 1 1 1 1 1 1 1 1 2 2 2 2 2 2 2 2 2 2 2 2 3 3 3 3 3 3 3 3 3 3 4 4 4 4
-2 -2 -2 -2 -2 -2 -2 -2 -2 -2 -2 -2 -2 -2 -2 -2 -2 -2 -2 -2 -2 -1 -1 -1 -1 -1 -1 -1 -1 -1 -1 -1 -1 -1 -1 -1 -1 -0 -0 -0 -0 -0 -0 -0 0 0 0 0 0 0 0 0 0 1 1 1 1 1 1 1 1 1 2 2 2 2 2 2 2 2 2 2 3 3 3 3 3 3 3 3 3 3 3 4 4 4
-2 -2 -2 -2 -2 -2 -2 -2 -2 -2 -2 -2 -2 -2 -2 -2 -2 -2 -2 -2 -2 -2 -2 -1 -1 -1 -1 -1 -1 -1 -1 -1 -1 -1 -1 -1 -1 -1 -1 -1 -1 -1 -0 -0 -0 -0 -0 -0 -0 -0 -0 -0 0 0 0 0 1 1 1 1 1 1 1 2 2 2 2 2 2 2 2 2 3 3 3 3 3 3 3 3 3 3 3 4 4 4
-2 -2 -2 -2 -2 -2 -2 -2 -2 -2 -2 -2 -2 -2 -2 -2 -2 -2 -2 -2 -2 -2 -2 -2 -2 -1 -1 -1 -1 -1 -1 -1 -1 -1 -1 -1 -1 -1 -1 -1 -1 -1 -1 -1 -1 -1 -1 -1 -0 -0 -0 -0 -0 -0 0 0 0 1 1 1 1 1 1 1 2 2 2 2 2 2 2 2 3 3 3 3 3 3 3 3 3 3 3 4 4 4
-2 -2 -2 -2 -2 -2 -2 -2 -2 -2 -2 -2 -2 -2 -2 -2 -2 -2 -2 -2 -2 -2 -2 -2 -2 -2 -2 -2 -1 -1 -1 -1 -1 -1 -2 -2 -2 -2 -1 -1 -1 -1 -1 -1 -1 -1 -1 -1 -1 -0 -0 -0 -0 -0 -0 0 0 0 0 1 1 1 1 1 2 2 2 2 2 2 2 2 3 3 3 3 3 3 3 3 3 3 3 4 4 4
-3 -3 -3 -3 -3 -2 -2 -2 -2 -2 -2 -2 -2 -2 -2 -2 -2 -2 -2 -2 -2 -2 -2 -2 -2 -2 -2 -2 -2 -2 -2 -2 -2 -2 -2 -2 -2 -2 -1 -1 -1 -1 -1 -1 -1 -1 -1 -1 -1 -1 -1 -0 -0 -0 -0 -0 0 0 0 1 1 1 1 1 2 2 2 2 2 2 2 2 3 3 3 3 3 3 3 3 3 3 3 3 4 4
-3 -3 -3 -3 -3 -3 -3 -3 -3 -3 -3 -3 -3 -3 -3 -3 -3 -3 -3 -3 -3 -3 -3 -3 -2 -2 -2 -2 -2 -2 -2 -2 -2 -2 -2 -2 -2 -2 -1 -1 -1 -1 -1 -1 -1 -1 -1 -1 -1 -1 -1 -1 -0 -0 -0 -0 0 0 0 1 1 1 1 1 2 2 2 2 2 2 2 3 3 3 3 3 3 3 3 3 3 3 3 3 4 4
-3 -3 -3 -3 -3 -3 -3 -3 -4 -4 -3 -3 -3 -3 -3 -3 -3 -3 -3 -3 -3 -3 -3 -3 -3 -3 -2 -2 -2 -2 -2 -2 -1 -1 -1 -2 -2 -2 -2 -2 -2 -2 -2 -2 -2 -1 -1 -1 -1 -1 -1 -0 -0 -0 -0 -0 -0 -0 0 0 0 1 1 1 1 2 2 2 2 2 2 3 3 3 3 3 3 3 3 3 3 3 3 3 4 4
-3 -3 -3 -3 -4 -4 -4 -4 -4 -4 -4 -4 -4 -3 -3 -3 -3 -3 -3 -3 -3 -3 -3 -3 -3 -3 -3 -3 -2 -2 -2 -2 -1 -2 -2 -2 -2 -2 -2 -2 -2 -2 -2 -2 -2 -2 -1 -1 -1 -1 -1 -1 -1 -1 -1 -1 -0 -0 -0 -0 -0 0 0 1 1 1 1 2 2 2 2 2 3 3 3 3 3 3 3 3 3 3 3 3 4 4
-3 -3 -4 -4 -4 -4 -4 -4 -4 -4 -4 -4 -4 -4 -4 -4 -3 -3 -3 -3 -3 -3 -3 -3 -3 -3 -3 -3 -3 -2 -2 -2 -2 -2 -2 -2 -2 -2 -2 -2 -2 -2 -2 -2 -2 -2 -2 -1 -1 -1 -1 -1 -1 -1 -1 -1 -1 -1 -1 -0 -0 -0 0 0 1 1 1 2 2 2 2 2 2 3 3 3 3 3 3 3 3 3 3 3 4 4
-4 -4 -4 -4 -4 -4 -4 -4 -4 -4 -4 -4 -4 -4 -4 -3 -3 -3 -3 -3 -3 -3 -3 -3 -3 -3 -3 -3 -3 -3 -2 -2 -2 -2 -2 -2 -2 -2 -2 -2 -2 -2 -2 -2 -2 -2 -2 -2 -2 -1 -1 -1 -1 -1 -1 -1 -1 -1 -1 -1 -0 -0 -0 0 0 1 1 1 2 2 2 2 2 3 3 3 3 3 3 4 4 4 4 4 4 4
-4 -4 -4 -4 -4 -4 -4 -4 -4 -4 -4 -4 -4 -4 -4 -3 -3 -3 -3 -3 -3 -3 -3 -3 -3 -3 -3 -3 -3 -3 -3 -2 -2 -2 -2 -2 -2 -3 -3 -2 -2 -2 -2 -2 -2 -2 -2 -2 -2 -2 -2 -1 -1 -1 -1 -1 -1 -1 -1 -1 -1 -0 -0 -0 0 0 1 1 1 2 2 2 2 2 3 3 3 3 4 4 4 4 4 4 4 4
-4 -4 -4 -4 -4 -4 -4 -4 -4 -4 -4 -4 -4 -4 -4 -3 -3 -3 -3 -3 -3 -3 -3 -3 -3 -3 -3 -3 -3 -3 -3 -2 -2 -2 -2 -3 -3 -3 -3 -3 -3 -3 -3 -2 -2 -2 -2 -2 -2 -2 -2 -1 -1 -1 -1 -1 -1 -1 -1 -1 -1 -1 -0 -0 -0 0 0 1 1 1 1 2 2 2 2 3 3 3 3 4 4 4 4 4 5 5
-4 -4 -4 -4 -4 -4 -4 -4 -4 -4 -4 -4 -4 -4 -4 -4 -4 -4 -4 -4 -3 -3 -3 -3 -3 -3 -3 -3 -3 -3 -3 -3 -3 -3 -3 -3 -3 -3 -3 -3 -3 -3 -3 -3 -3 -2 -2 -2 -2 -2 -2 -2 -2 -1 -1 -1 -1 -1 -1 -1 -1 -1 -1 -0 -0 -0 0 0 1 1 1 1 2 2 2 2 2 3 3 4 4 4 4 4 4 5
-4 -4 -4 -4 -4 -4 -4 -4 -4 -4 -4 -4 -4 -4 -4 -4 -4 -4 -4 -4 -4 -4 -4 -4 -4 -4 -4 -4 -3 -3 -3 -3 -3 -3 -3 -3 -3 -3 -3 -3 -3 -3 -3 -3 -3 -3 -3 -2 -2 -2 -2 -2 -1 -1 -1 -1 -1 -1 -1 -1 -1 -1 -1 -1 -0 -0 -0 0 0 1 1 1 1 1 2 2 2 2 3 3 4 4 4 4 4 4
-4 -4 -4 -4 -4 -4 -4 -4 -4 -4 -4 -4 -4 -4 -4 -4 -4 -4 -4 -4 -4 -4 -4 -4 -4 -4 -4 -4 -4 -4 -4 -4 -4 -4 -4 -4 -4 -4 -4 -3 -3 -3 -3 -3 -3 -3 -3 -3 -2 -2 -2 -2 -1 -1 -1 -1 -1 -1 -1 -1 -1 -1 -1 -1 -1 -1 -0 -0 0 0 1 1 1 1 1 2 2 2 2 3 3 3 4 4 4 4
-4 -4 -4 -4 -4 -4 -4 -4 -4 -4 -4 -4 -4 -4 -4 -4 -4 -4 -4 -4 -4 -4 -4 -4 -4 -4 -4 -4 -4 -4 -4 -4 -4 -4 -4 -4 -4 -4 -4 -4 -4 -3 -3 -3 -3 -3 -3 -3 -3 -2 -2 -2 -1 -1 -1 -1 -1 -1 -1 -1 -1 -1 -1 -1 -1 -1 -1 -0 -0 0 0 1 1 1 1 1 1 1 2 2 2 3 3 4 4 4
-4 -4 -4 -4 -4 -4 -4 -4 -4 -4 -4 -4 -4 -4 -4 -4 -4 -4 -4 -4 -4 -4 -4 -4 -4 -4 -4 -4 -4 -4 -4 -4 -4 -4 -4 -4 -4 -4 -4 -4 -4 -3 -3 -3 -3 -3 -3 -3 -3 -2 -2 -2 -2 -2 -2 -1 -1 -1 -1 -1 -1 -1 -1 -1 -1 -1 -1 -1 -0 -0 -0 0 0 1 1 1 1 1 1 2 2 2 3 3 4 4
-5 -4 -4 -4 -4 -4 -4 -4 -5 -5 -5 -5 -5 -5 -4 -4 -4 -4 -4 -4 -4 -4 -4 -4 -4 -3 -4 -4 -3 -3 -3 -3 -3 -3 -3 -3 -3 -4 -4 -4 -4 -4 -3 -3 -3 -3 -3 -3 -3 -3 -2 -2 -2 -2 -2 -2 -1 -1 -1 -1 -1 -1 -1 -1 -1 -1 -1 -1 -1 -0 -0 -0 0 0 1 1 1 1 1 2 2 2 3 3 3 4
-5 -5 -5 -5 -5 -5 -5 -5 -5 -5 -5 -5 -5 -4 -4 -4 -4 -4 -4 -4 -4 -4 -4 -3 -3 -3 -3 -3 -3 -3 -3 -3 -3 -3 -3 -3 -3 -3 -4 -4 -4 -4 -4 -4 -3 -3 -3 -3 -3 -3 -2 -2 -2 -2 -2 -2 -1 -1 -1 -1 -1 -1 -1 -1 -1 -1 -1 -1 -1 -1 -0 -0 -0 0 0 1 1 1 1 2 2 2 2 3 3 4
-5 -5 -5 -5 -5 -5 -5 -5 -5 -5 -5 -5 -5 -4 -4 -4 -4 -4 -4 -4 -4 -4 -4 -4 -3 -3 -3 -3 -3 -3 -3 -3 -3 -3 -3 -3 -3 -3 -4 -4 -4 -4 -4 -4 -4 -3 -3 -3 -3 -3 -2 -2 -2 -2 -2 -2 -2 -1 -1 -1 -1 -1 -1 -1 -1 -1 -1 -1 -1 -1 -0 -0 -0 -0 0 0 1 1 1 2 2 2 2 3 3 3
-5 -5 -5 -5 -5 -5 -5 -5 -5 -5 -5 -5 -5 -5 -4 -4 -4 -4 -4 -4 -4 -4 -4 -4 -4 -3 -3 -3 -3 -3 -3 -3 -3 -3 -3 -3 -3 -3 -3 -4 -4 -4 -4 -4 -4 -4 -3 -3 -3 -3 -3 -2 -2 -2 -2 -2 -2 -2 -2 -1 -1 -1 -1 -1 -1 -1 -1 -1 -1 -0 -0 -0 -0 -0 0 0 1 1 1 1 2 2 2 3 3 3
-5 -5 -5 -5 -5 -5 -5 -5 -5 -5 -5 -5 -5 -5 -4 -4 -4 -4 -4 -4 -4 -4 -4 -4 -4 -3 -3 -3 -3 -3 -3 -2 -2 -3 -3 -3 -3 -3 -3 -4 -4 -4 -4 -4 -4 -4 -4 -3 -3 -3 -3 -3 -3 -3 -2 -2 -2 -2 -1 -1 -1 -1 -1 -1 -1 -1 -1 -1 -1 -0 -0 -0 -0 -0 -0 0 0 1 1 1 2 2 2 2 3 3
-5 -5 -5 -5 -5 -5 -5 -5 -5 -5 -5 -5 -5 -5 -4 -4 -4 -4 -4 -4 -4 -4 -4 -4 -4 -3 -3 -3 -3 -3 -3 -3 -3 -3 -3 -3 -3 -3 -3 -4 -4 -4 -4 -4 -4 -4 -4 -4 -3 -3 -3 -3 -3 -3 -2 -2 -2 -2 -2 -1 -1 -1 -1 -1 -1 -1 -1 -1 -1 -1 -0 -0 -0 -0 -0 -0 0 0 1 1 1 2 2 2 2 3
-6 -6 -6 -6 -6 -6 -5 -5 -5 -5 -5 -5 -5 -5 -5 -5 -5 -4 -4 -4 -4 -4 -4 -4 -4 -3 -3 -3 -3 -3 -3 -3 -3 -3 -3 -3 -3 -3 -3 -4 -4 -4 -4 -4 -4 -4 -4 -4 -4 -4 -3 -3 -3 -3 -2 -2 -2 -2 -2 -1 -1 -1 -1 -1 -1 -1 -1 -1 -1 -1 -1 -0 -0 -0 -0 -0 -0 0 0 1 1 2 2 2 2 3
-6 -6 -6 -6 -6 -6 -6 -5 -5 -5 -5 -5 -5 -5 -5 -5 -5 -4 -4 -4 -4 -4 -4 -4 -4 -3 -3 -3 -3 -3 -3 -3 -3 -3 -3 -3 -3 -4 -4 -4 -4 -4 -4 -4 -4 -4 -4 -4 -4 -4 -4 -4 -3 -3 -2 -2 -2 -2 -2 -1 -1 -1 -1 -1 -1 -1 -1 -1 -1 -1 -1 -1 -0 -0 -0 -0 -0 0 0 1 1 2 2 2 2 2
-6 -6 -6 -6 -6 -6 -6 -6 -6 -5 -5 -5 -5 -5 -5 -5 -5 -4 -4 -4 -4 -4 -4 -4 -4 -3 -3 -3 -3 -3 -3 -3 -3 -3 -3 -3 -4 -4 -4 -4 -4 -4 -4 -4 -4 -4 -4 -4 -4 -4 -4 -4 -3 -3 -2 -2 -2 -2 -2 -1 -1 -1 -1 -1 -1 -1 -1 -1 -1 -1 -1 -1 -0 -0 -0 -0 -0 0 1 1 1 2 2 2 2 2
-7 -7 -6 -6 -6 -6 -6 -6 -6 -6 -5 -5 -5 -5 -5 -5 -5 -5 -5 -4 -4 -4 -4 -4 -4 -4 -3 -3 -3 -3 -3 -3 -3 -3 -3 -4 -4 -4 -4 -4 -4 -4 -4 -4 -4 -4 -4 -4 -3 -3 -3 -3 -3 -3 -3 -2 -2 -2 -2 -1 -1 -1 -1 -1 -1 -1 -1 -0 -0 -1 -1 -1 -1 -0 -0 -0 -0 0 1 1 1 2 2 2 2 2
-7 -7 -7 -6 -6 -6 -6 -6 -6 -6 -6 -5 -5 -5 -5 -5 -5 -5 -4 -4 -4 -4 -4 -4 -4 -4 -3 -3 -3 -3 -3 -3 -4 -4 -4 -4 -4 -4 -5 -5 -5 -4 -4 -4 -4 -4 -3 -3 -3 -3 -2 -2 -2 -2 -3 -2 -2 -2 -2 -1 -1 -1 -1 -1 -1 -0 -0 -0 -0 -0 -1 -1 -1 -0 -0 -0 0 0 1 1 1 2 2 2 2 2
Height
788 786 785 784 783 782 779 779 778 777 775 773 772 771 770 768 767 766 765 764 763 761 760 759 758 756 755 754 753 753 752 751 749 748 748 746 745 744 743 742 741 740 739 738 737 736 735 734 733 732 731 730 729 728 727 725 724 723 723 722 722 722 721 721 720 720 719 719 718 718 717 717 716 716 715 715 715 714 714 714 715 715 715 716 716 716
787 786 785 784 783 781 779 778 778 777 775 773 771 770 769 768 766 764 763 762 761 760 759 758 756 755 754 753 752 751 750 749 748 747 746 745 743 742 741 740 739 738 737 736 735 734 733 732 731 730 729 728 727 726 725 724 723 722 721 720 719 719 718 718 718 717 717 716 716 715 715 714 714 713 713 712 712 712 712 712 712 712 712 713 713 713
787 785 784 783 782 781 779 777 776 776 775 773 771 769 768 766 765 763 762 760 759 758 758 756 755 753 752 751 750 749 748 748 746 745 744 743 742 741 739 738 737 736 735 734 733 732 731 730 729 728 727 726 725 724 723 722 721 720 719 718 717 716 715 715 715 714 714 714 713 713 712 712 711 711 710 710 709 709 709 709 709 709 709 709 710 710
786 785 783 782 781 780 778 777 776 774 773 772 770 768 767 766 764 762 761 759 758 757 756 755 754 752 751 749 748 748 747 746 745 743 743 741 740 739 738 737 735 734 733 732 731 729 728 728 726 725 724 723 723 721 720 719 718 718 717 716 715 713 713 712 712 711 711 711 710 710 709 709 708 708 708 707 707 706 706 706 706 706 706 706 706 707
786 784 783 782 780 778 777 776 775 773 772 770 769 767 766 764 763 761 759 758 757 756 754 753 752 751 750 748 747 746 745 744 743 742 741 740 738 737 736 735 733 732 731 729 728 727 726 725 724 723 722 721 720 719 718 717 716 715 714 713 712 711 710 709 709 708 708 708 707 707 707 706 706 705 705 704 704 704 703 703 703 703 703 703 703 703
785 784 783 782 780 778 776 775 774 773 771 769 767 766 765 763 761 760 758 757 756 754 753 752 750 749 748 747 745 744 743 742 741 740 739 738 737 735 734 733 731 730 728 727 726 725 723 722 721 720 719 718 717 716 715 714 713 712 711 710 709 708 708 707 706 706 705 704 704 704 703 703 703 702 702 702 701 701 701 700 700 700 700 700 700 700
783 783 782 781 779 778 776 774 773 772 771 768 766 764 763 762 760 759 757 756 754 753 751 749 748 747 746 745 744 743 742 740 739 738 737 736 734 733 732 730 729 728 726 725 724 722 721 720 718 717 716 715 714 713 712 711 710 709 709 708 707 706 705 704 704 703 703 702 701 701 700 700 699 699 698 698 698 698 698 697 697 697 697 697 697 697
782 781 781 780 778 776 775 773 773 772 770 768 766 763 761 760 758 757 756 754 753 751 749 748 746 745 745 744 743 741 740 738 737 736 734 733 732 730 729 728 727 725 724 723 721 720 718 717 716 715 713 713 711 710 709 709 708 707 706 705 704 703 703 702 701 700 700 699 698 698 697 697 696 696 695 695 695 694 694 694 694 694 694 694 694 694
782 781 779 779 778 776 773 771 771 770 770 768 766 763 761 758 756 754 753 752 751 750 749 747 745 743 743 742 741 740 738 737 735 734 732 731 729 728 727 725 724 723 721 720 718 717 716 714 713 712 711 710 709 708 707 706 705 704 703 703 702 701 700 699 698 698 697 697 696 695 695 694 693 693 692 692 691 691 691 691 691 691 691 691 691 691
782 780 778 777 777 775 773 770 768 768 768 767 765 763 762 759 756 753 751 749 749 748 748 746 744 742 740 739 739 738 736 734 733 732 731 729 727 726 724 723 721 720 718 717 716 714 713 712 711 709 708 707 706 705 704 703 703 702 701 700 699 698 698 697 696 695 694 694 693 693 692 691 690 690 689 689 688 688 688 688 688 688 688 688 688 688
780 779 778 776 775 774 773 770 768 767 767 765 764 762 761 760 757 754 750 747 746 746 745 744 743 741 739 737 736 735 734 732 730 729 728 726 725 724 722 720 719 717 716 714 713 712 711 709 708 707 706 705 704 703 702 701 700 699 698 698 697 696 695 694 693 693 692 691 691 690 689 688 688 687 687 686 686 685 685 685 685 684 684 685 685 685
780 778 777 775 773 772 771 769 768 766 765 764 762 760 758 758 757 755 752 748 745 744 743 742 741 740 739 737 734 733 732 730 728 726 724 723 722 721 719 718 716 715 713 712 710 709 708 707 706 704 703 702 701 700 699 698 698 697 696 695 694 693 692 692 691 690 689 688 688 688 687 686 685 685 684 683 683 683 682 682 682 681 681 681 682 682
779 778 776 774 773 771 770 768 766 765 764 763 762 759 757 756 755 754 752 748 746 743 742 739 737 736 736 736 734 732 730 728 726 724 722 721 720 719 718 715 713 712 711 709 708 706 705 704 703 702 701 699 698 698 697 696 695 694 693 692 691 690 689 688 688 687 686 686 685 685 684 684 683 683 682 681 681 680 680 679 679 678 678 678 678 678
778 776 775 773 771 770 769 768 766 764 763 762 761 759 757 755 754 753 750 747 744 743 742 738 735 733 733 733 733 731 729 726 723 722 720 718 718 718 716 714 711 710 709 707 705 703 703 702 700 699 698 697 696 695 694 693 692 691 690 689 688 687 687 686 685 684 683 683 682 681 681 680 680 680 679 679 678 678 678 677 677 676 676 676 676 676
777 776 774 772 770 769 768 767 765 763 762 761 759 758 756 754 753 752 749 746 743 741 740 737 733 731 730 731 730 730 728 725 723 720 718 716 716 716 715 712 709 707 706 705 702 700 700 699 698 696 695 694 693 692 691 690 689 688 687 686 685 684 683 683 682 681 680 679 678 678 677 677 676 676 676 676 676 675 675 675 674 674 673 673 673 673
776 775 773 771 769 768 767 766 764 762 760 759 758 757 755 753 752 750 749 746 743 741 739 736 732 728 726 727 728 729 727 724 722 719 716 713 712 713 714 711 708 704 703 702 699 698 697 696 695 693 692 691 690 689 688 688 686 685 684 683 682 681 680 679 678 678 677 676 675 674 674 673 673 672 672 672 672 672 672 672 671 671 671 670 670 670
775 773 772 769 767 766 765 764 763 762 760 758 757 756 755 753 751 750 748 746 743 741 739 737 733 728 723 721 723 726 727 724 721 718 715 711 709 710 712 710 706 702 699 698 697 695 694 693 692 690 689 688 687 686 685 684 683 682 681 680 679 678 677 676 675 674 673 673 672 671 670 670 669 668 668 668 668 668 668 668 668 668 668 668 667 667
773 772 770 768 766 764 763 763 762 761 759 758 756 755 753 752 751 750 748 746 744 742 739 737 734 731 726 721 719 722 725 724 720 717 713 709 706 706 708 708 704 700 697 694 693 692 692 690 688 687 686 685 684 683 682 681 680 679 678 677 676 675 674 673 672 671 670 669 668 668 667 666 665 665 664 664 664 664 664 664 664 664 664 664 664 664
771 770 769 767 765 764 763 762 761 760 759 757 755 754 752 751 750 749 747 745 744 742 739 736 732 729 727 722 719 720 723 723 720 716 712 707 703 702 704 704 701 697 694 691 690 689 688 687 685 684 683 682 681 680 679 678 677 676 675 674 673 672 670 669 668 668 667 666 665 664 663 663 662 662 661 661 660 660 660 660 660 660 661 661 660 660
770 769 768 767 766 764 762 761 761 760 758 757 755 753 751 749 748 747 746 744 742 740 738 735 731 728 725 721 718 718 721 721 719 715 710 705 700 698 700 701 698 694 690 688 687 686 686 683 682 680 679 678 678 677 676 675 674 673 672 671 669 668 667 666 665 664 663 663 662 661 660 659 659 658 658 657 657 657 656 656 656 657 657 657 657 657
769 768 767 767 766 764 761 759 759 758 758 756 755 753 750 748 746 745 743 742 740 738 736 733 729 725 723 720 717 716 718 720 718 713 708 703 698 695 697 698 695 691 687 684 683 684 683 681 679 678 676 675 674 674 673 672 671 670 668 667 666 665 664 663 662 661 660 659 658 657 657 656 655 654 654 653 653 653 653 653 653 653 653 653 653 653
769 766 765 765 765 763 760 758 757 757 756 755 753 751 749 747 745 743 741 740 738 735 733 730 726 723 722 719 716 715 717 718 716 712 707 701 694 692 694 695 693 689 685 682 680 680 680 678 676 674 673 673 672 671 670 669 668 666 665 664 663 662 660 659 658 657 656 655 654 653 653 652 652 651 650 650 650 649 649 649 649 649 649 649 649 649
767 765 763 763 762 761 759 757 756 755 754 753 752 750 748 746 743 741 739 737 735 733 729 726 723 721 719 717 714 713 714 714 713 711 707 701 693 689 691 693 691 687 683 680 678 678 677 675 673 672 671 669 668 668 667 666 664 663 662 661 659 658 657 656 654 653 652 651 651 650 649 648 648 647 647 646 646 646 646 645 645 645 645 645 645 645
765 763 762 761 760 759 758 756 755 753 753 751 750 748 746 744 742 739 737 735 733 730 727 724 720 718 715 714 713 711 711 712 712 710 706 700 693 689 689 690 689 684 679 678 677 676 674 672 670 669 668 666 665 665 663 662 661 660 658 657 656 655 653 652 651 650 649 648 647 646 645 644 644 643 643 643 642 642 642 642 642 642 642 642 642 642
763 762 761 759 758 757 756 755 753 752 751 750 748 746 744 742 740 738 736 733 732 729 726 723 720 716 713 712 710 709 708 710 710 708 705 699 693 688 687 688 687 683 677 675 675 674 672 668 667 665 665 663 662 661 660 659 658 657 655 654 653 651 650 648 647 646 645 644 643 642 641 640 640 639 639 638 638 638 638 638 638 638 638 638 638 638
762 760 759 758 757 756 754 753 752 751 750 749 747 745 743 740 738 736 733 732 730 728 726 723 718 715 712 710 708 706 706 707 707 707 704 700 693 687 685 686 686 682 676 673 672 672 669 666 663 662 661 660 659 658 657 656 654 653 652 650 649 648 646 645 644 643 641 640 639 638 637 637 636 635 635 635 634 634 634 634 634 634 634 634 634 634
760 758 757 756 754 753 752 751 750 748 748 747 746 744 742 740 737 734 732 730 729 728 725 722 717 713 711 709 707 704 703 704 704 704 703 699 693 687 683 683 683 680 675 671 669 668 667 663 661 659 658 657 655 654 653 652 651 650 648 647 645 644 643 642 640 639 638 637 635 634 633 633 632 632 631 631 630 630 630 630 630 630 630 630 630 630
757 756 755 753 752 751 750 748 747 746 745 744 743 743 742 740 737 733 730 729 728 727 724 722 718 714 710 707 704 702 702 702 702 701 700 698 692 686 682 681 680 678 675 670 666 664 664 661 658 657 655 653 652 651 650 649 648 646 645 643 642 641 639 638 637 635 634 633 632 631 630 629 628 628 627 626 626 626 626 626 626 627 627 627 627 626
754 753 752 751 750 749 748 746 745 744 743 742 741 740 740 738 736 733 730 729 728 726 723 720 718 714 710 706 703 700 699 699 699 699 698 695 689 684 681 680 678 677 674 669 663 660 658 657 656 654 652 650 649 648 646 645 644 643 642 640 639 638 636 635 633 632 631 630 628 627 626 625 624 624 623 622 622 622 622 622 622 623 623 623 622 622
752 751 750 748 748 747 745 744 743 741 740 740 739 738 738 737 735 732 730 728 727 725 721 718 716 713 710 706 702 698 694 694 696 697 696 693 688 683 680 679 677 675 674 670 663 656 651 650 651 652 650 648 646 645 644 643 642 640 639 637 636 634 633 632 631 629 628 626 625 624 623 622 621 620 619 618 618 618 617 618 618 619 619 619 618 618
750 749 747 746 745 744 743 742 740 739 738 737 737 736 735 734 732 731 729 727 726 723 720 717 714 712 710 708 703 697 691 690 693 695 695 692 686 681 680 677 674 672 673 672 666 657 648 643 644 647 648 646 644 642 641 640 639 638 636 634 633 631 630 629 628 626 624 623 621 620 619 618 617 616 616 615 614 614 613 613 614 615 615 615 614 614
748 747 745 744 743 742 741 740 738 737 736 735 734 733 732 731 730 728 727 725 723 722 719 716 713 711 709 707 703 698 691 688 690 693 693 690 684 679 678 676 673 669 669 670 668 662 652 643 639 641 644 644 642 640 638 638 636 635 633 632 629 628 627 626 625 623 621 620 618 617 616 615 614 613 612 611 611 610 610 609 610 610 611 611 610 609
747 745 744 743 741 740 739 738 737 735 734 733 732 731 729 728 727 726 724 723 722 720 718 715 712 709 706 704 700 696 692 689 689 690 691 688 683 678 675 674 671 668 666 665 663 661 655 647 641 638 639 639 639 637 635 634 633 632 631 629 627 625 624 623 622 621 619 617 616 614 613 612 611 610 609 608 608 607 607 606 606 606 607 607 606 606
745 744 742 741 740 738 737 736 735 733 732 731 729 728 727 726 724 723 722 721 719 718 716 713 711 708 704 701 697 693 689 687 687 688 688 686 682 677 673 671 668 666 663 661 658 656 652 647 643 639 636 634 633 634 633 631 630 629 628 626 624 623 621 621 620 618 616 615 613 612 610 609 608 607 606 605 605 604 603 603 603 603 603 603 603 603
743 742 741 739 738 737 735 734 733 731 730 728 727 726 725 723 722 721 719 718 716 715 713 711 709 706 703 700 695 690 686 683 684 685 685 684 680 675 671 668 666 664 662 658 655 652 648 643 641 639 635 631 628 628 629 628 627 625 624 623 622 620 618 618 617 616 614 613 611 609 608 606 605 604 603 603 602 601 601 600 600 600 600 600 600 600
742 740 739 738 737 735 733 732 730 729 728 726 725 723 722 721 719 718 716 715 713 712 710 708 706 704 702 698 694 689 684 681 680 681 682 681 678 674 669 665 663 662 659 655 652 649 646 640 637 636 634 630 626 623 623 624 624 623 621 619 618 617 616 615 614 613 612 610 608 607 605 604 603 602 600 599 599 598 598 597 597 596 596 596 596 596
741 739 738 737 735 733 732 730 728 727 725 724 722 721 720 718 717 715 713 712 710 708 706 704 702 700 697 695 692 687 682 679 677 677 677 676 675 672 667 662 659 659 658 653 649 646 643 638 634 631 630 628 624 621 619 619 620 619 617 616 615 614 613 612 612 611 609 608 606 604 603 601 600 599 598 597 596 595 594 594 593 593 593 593 592 592
740 738 736 735 733 732 730 728 727 725 724 722 720 718 717 715 713 712 710 708 706 703 701 699 696 694 692 690 687 683 680 677 674 672 672 671 670 668 664 659 655 654 654 651 648 644 641 637 632 628 625 623 621 619 618 617 616 614 613 613 612 611 610 609 609 608 607 605 603 602 600 599 598 596 595 594 593 593 591 590 590 590 589 589 588 588
738 737 735 733 732 731 729 727 725 723 722 720 718 717 714 712 710 708 706 704 702 699 697 695 692 689 686 684 682 679 677 674 671 669 668 667 665 663 660 656 652 650 649 648 645 642 639 635 630 626 623 619 616 615 614 614 613 611 610 608 608 607 606 606 605 604 603 602 601 599 598 596 595 594 593 592 591 590 589 588 587 587 586 586 585 584
737 735 733 732 731 729 728 726 724 722 720 718 716 714 712 709 707 704 703 701 698 696 694 691 688 685 682 679 677 675 673 670 668 665 664 662 660 659 656 653 649 646 644 643 641 639 636 632 628 624 621 618 614 612 610 610 609 608 608 606 603 601 601 602 601 601 600 599 598 596 595 594 593 592 590 589 588 587 586 585 585 584 584 583 582 581
736 734 732 730 729 728 726 724 722 720 718 716 714 712 709 707 705 702 699 697 695 693 691 688 685 681 678 675 673 671 668 666 664 662 660 658 656 654 652 650 647 644 642 639 637 635 633 629 625 622 619 616 613 610 607 605 605 605 605 602 599 597 597 597 597 597 596 595 594 593 592 591 590 589 588 586 585 584 583 583 582 582 581 580 580 578
735 733 731 729 727 726 724 722 720 718 717 714 712 710 708 705 703 700 697 694 692 689 687 685 682 678 673 670 668 666 664 662 660 658 655 653 652 650 648 646 644 642 639 636 633 630 629 627 623 620 616 614 612 608 603 601 601 601 601 599 596 594 593 592 592 593 593 591 590 589 589 588 587 586 585 583 582 581 580 580 579 578 578 577 576 575
733 732 730 728 726 724 722 720 718 717 715 713 710 708 706 704 702 699 696 693 689 687 684 682 679 675 671 666 663 660 659 657 655 653 651 649 648 646 645 643 641 639 637 634 630 627 624 623 620 617 614 612 610 606 601 598 597 597 596 595 594 593 590 587 587 588 588 588 587 586 585 585 584 583 582 581 579 578 577 576 575 575 574 573 572 571
732 730 728 727 725 723 721 719 717 715 713 711 708 706 704 702 700 698 694 691 688 684 682 679 676 673 668 663 659 656 653 651 650 649 648 646 644 643 641 639 638 636 634 632 628 624 621 618 615 613 611 609 607 603 599 596 594 593 592 591 591 590 587 584 583 584 584 583 583 582 582 581 581 580 579 578 576 575 574 573 572 571 570 570 569 568
731 729 727 725 723 722 719 717 715 713 711 709 707 704 702 700 698 696 693 689 686 683 680 677 674 669 664 660 656 653 649 647 645 644 643 642 641 639 638 636 634 632 630 628 625 622 618 614 611 609 608 606 603 600 596 593 591 589 588 587 587 585 583 581 581 581 580 579 579 578 578 578 578 578 576 574 573 572 571 570 568 568 567 566 566 565
730 728 726 724 723 720 718 716 714 712 709 707 704 702 700 698 696 693 691 688 684 680 677 675 672 668 663 657 653 650 646 643 641 640 639 638 636 635 634 633 630 628 626 624 621 619 616 613 609 606 604 602 599 595 593 591 589 586 584 583 583 581 579 578 577 577 576 576 575 575 575 575 576 575 573 571 570 568 567 566 565 564 563 563 562 561
729 727 725 723 721 719 717 715 713 710 708 705 702 700 698 696 693 691 688 685 682 678 675 672 669 666 661 656 652 648 645 640 637 635 634 633 632 631 630 628 626 624 623 620 617 614 612 609 607 604 602 598 594 590 588 587 586 583 581 579 578 577 575 573 573 573 573 572 571 571 572 572 572 571 570 568 567 565 564 563 561 561 560 559 558 557
728 727 724 722 720 718 715 713 711 709 706 703 700 698 696 694 692 689 685 682 679 676 673 669 665 662 658 653 650 647 644 639 636 633 631 629 628 627 625 624 622 620 618 615 613 610 607 604 603 601 598 595 591 587 583 582 581 580 578 576 575 573 571 569 569 569 569 568 568 568 568 569 568 568 567 566 564 562 560 558 557 557 556 555 554 553
728 726 723 721 719 717 714 712 709 707 704 701 698 695 693 691 689 687 683 680 677 674 670 667 663 658 654 650 647 644 641 638 634 632 629 627 625 624 622 620 618 616 613 611 608 606 603 599 597 595 594 592 588 584 580 578 577 576 574 573 571 570 568 566 566 565 565 565 564 564 564 565 565 564 564 563 561 559 557 555 553 553 552 552 551 550
727 725 723 721 718 716 713 711 708 706 703 700 696 693 690 687 685 683 681 678 674 671 668 664 660 656 651 647 643 641 638 635 632 629 627 625 623 621 619 617 615 613 609 606 603 601 598 594 591 589 588 587 585 582 578 574 572 571 570 568 567 566 565 563 562 562 562 561 561 561 561 561 561 562 562 561 558 556 553 552 549 548 548 547 547 546
726 724 722 719 717 715 712 709 707 704 701 698 695 692 688 685 682 680 678 675 672 668 665 661 658 654 649 645 641 638 636 634 631 628 625 623 621 620 617 615 613 610 607 603 599 597 594 590 585 582 580 580 580 578 576 572 569 568 566 564 563 562 561 560 558 558 558 558 558 558 558 558 558 558 558 558 556 554 551 548 546 544 543 543 543 542
Wind_Speed
20 22 23 23 23 23 23 23 23 24 25 25 25 26 27 28 29 30 31 31 31 30 30 30 29 29 29 29 29 29 29 29 29 30 30 30 31 31 31 32 32 32 32 32 32 33 33 33 33 33 33 33 34 34 35 35 35 35 35 34 34 33 33 32 32 31 31 31 31 31 31 31 32 32 33 34 34 34 34 34 34 33 32 31 31 31
20 21 21 21 21 22 22 22 22 23 25 26 26 26 28 29 30 30 30 29 28 28 28 28 28 29 29 30 30 30 29 29 29 30 30 30 31 31 32 32 32 32 32 32 33 33 33 33 33 33 33 33 33 33 33 34 34 35 35 35 35 35 34 33 33 32 32 31 31 31 31 31 32 33 34 35 35 36 36 36 35 35 34 33 33 32
20 20 20 19 19 20 22 23 23 23 25 26 27 27 29 30 30 29 28 28 27 27 26 27 28 29 29 30 30 30 29 29 29 29 30 30 31 31 31 32 32 32 32 32 33 33 33 33 33 33 33 33 33 34 34 34 35 35 36 36 36 36 36 35 34 34 33 33 32 32 32 32 32 33 33 35 35 36 36 36 36 36 36 35 34 34
18 18 19 20 20 21 22 23 24 24 25 25 27 28 29 29 28 27 28 27 27 27 27 27 28 29 29 29 29 29 29 29 29 29 30 30 30 31 31 31 32 32 33 33 33 33 34 34 34 34 34 34 35 35 35 35 36 36 36 37 37 37 37 37 37 36 35 35 34 34 34 33 33 33 33 34 34 35 35 36 36 36 36 36 36 35
18 18 19 20 21 21 22 23 24 25 25 25 26 27 27 27 27 27 27 27 27 27 27 27 27 28 28 28 29 29 29 28 28 28 29 29 30 30 31 32 32 33 33 34 34 34 34 35 35 35 35 35 35 35 36 36 36 36 37 37 37 37 38 38 38 37 37 36 36 35 35 35 35 35 34 34 34 35 35 35 35 36 36 36 36 36
19 19 19 20 21 22 23 23 23 23 24 25 25 26 25 26 26 26 27 27 27 27 27 28 28 28 28 28 28 28 28 27 27 28 28 29 30 31 32 32 33 33 34 34 34 35 35 35 35 35 36 36 36 36 36 36 36 37 37 37 37 37 37 37 37 37 37 37 36 36 36 36 36 36 36 36 35 35 36 36 36 36 36 36 36 36
20 20 19 20 21 22 22 22 22 22 23 24 25 25 25 25 25 25 26 27 27 28 28 28 28 27 27 27 27 27 27 27 28 29 29 30 31 32 32 32 33 33 34 34 34 35 35 35 36 36 36 36 36 36 36 36 36 37 37 37 37 38 38 37 37 37 37 37 37 36 36 36 36 36 36 36 36 36 36 36 36 36 36 36 36 36
21 21 20 20 21 22 22 22 21 21 22 23 24 25 25 25 25 25 26 27 27 27 27 27 26 26 25 25 26 26 27 28 29 30 30 31 31 31 32 32 33 33 34 34 35 35 35 36 36 36 36 36 36 36 36 36 36 36 36 37 37 37 38 38 38 37 37 37 37 37 37 37 37 37 37 37 37 37 37 37 37 37 36 36 36 36
21 21 21 21 20 21 22 22 21 21 21 22 23 24 25 26 26 26 26 26 25 25 25 25 26 26 26 26 26 27 28 29 29 30 30 31 31 31 32 32 33 34 34 34 35 35 35 36 36 36 36 36 36 36 36 36 36 36 36 36 36 36 37 37 37 37 37 37 36 37 37 38 38 38 38 38 38 38 38 38 38 38 37 37 37 36
20 20 21 21 20 20 20 22 22 22 22 22 23 24 24 25 26 27 26 26 25 24 23 24 26 27 28 28 27 27 28 29 29 30 30 31 31 32 33 33 33 34 34 34 35 35 35 35 35 35 35 35 35 35 35 35 35 35 35 35 35 35 36 36 36 36 36 36 37 37 38 38 38 38 37 37 37 36 36 36 36 37 37 37 37 36
19 19 20 20 20 20 20 21 22 23 23 23 23 24 23 22 23 24 25 26 27 26 25 25 26 27 28 29 28 28 28 29 30 30 30 31 31 32 32 33 33 33 33 34 34 34 34 34 34 34 34 34 35 35 35 35 35 35 35 35 35 35 35 35 35 36 36 36 36 36 35 34 33 32 31 31 30 30 30 30 31 32 33 34 34 35
18 19 19 20 20 20 20 21 22 22 22 22 21 22 22 21 21 22 24 26 28 28 28 28 28 27 27 28 29 29 29 29 30 30 31 31 30 30 31 31 31 31 32 32 32 32 32 32 33 33 34 34 34 34 34 34 34 35 35 35 36 36 36 37 36 36 36 36 35 34 32 30 28 27 26 26 27 27 28 29 29 30 31 31 32 32
18 19 19 20 20 20 20 21 21 21 20 20 19 20 21 22 23 23 25 26 28 28 29 30 30 29 28 28 28 28 29 29 30 30 30 30 29 29 29 29 30 30 30 31 31 32 32 32 33 33 33 33 34 34 34 35 35 35 36 36 37 37 37 38 38 38 38 38 37 36 34 32 30 28 27 27 27 28 29 30 31 32 32 33 33 32
18 19 19 19 19 19 20 20 20 20 20 20 20 21 23 24 25 25 25 27 28 28 29 29 30 31 30 28 27 26 27 28 29 29 29 29 28 27 27 29 30 30 31 31 32 33 32 32 33 33 33 34 34 34 35 36 36 37 37 37 37 37 38 38 38 39 39 40 40 40 38 37 35 33 32 31 30 29 30 30 31 32 33 34 35 34
18 18 18 18 18 19 19 20 20 21 21 21 22 23 24 25 25 24 25 26 27 29 29 29 31 31 30 27 25 24 25 27 27 28 28 29 28 27 27 29 31 32 32 32 33 34 33 33 33 33 34 34 34 35 35 36 36 37 37 37 38 38 38 38 39 39 39 40 41 42 42 41 40 38 36 35 34 33 32 31 31 31 32 33 35 35
19 18 17 18 18 19 20 20 20 21 22 23 23 23 24 24 24 24 24 25 27 28 27 27 28 28 29 27 24 22 23 24 26 27 29 30 30 29 28 30 32 33 33 33 34 34 34 33 33 34 34 34 35 35 35 35 36 36 37 38 38 39 39 39 39 40 40 40 41 42 42 43 42 42 40 39 37 36 35 34 33 32 32 33 33 34
19 18 18 19 19 20 21 21 21 21 23 23 23 23 23 23 24 24 25 25 26 26 25 23 17 14 19 27 26 22 21 23 25 28 30 33 33 32 30 30 32 34 35 35 35 34 34 34 34 34 34 35 35 35 35 35 36 37 38 39 39 40 40 40 41 41 41 41 41 41 42 42 43 43 43 41 40 39 37 36 35 35 34 34 33 34
19 19 19 19 19 20 21 21 22 23 23 24 24 24 24 24 24 25 25 25 25 24 24 23 19 13 12 20 25 26 24 25 28 30 32 34 35 35 32 32 33 35 36 36 36 35 34 34 34 35 35 35 35 35 35 36 37 38 39 39 40 40 41 41 41 42 42 42 41 41 41 42 42 42 42 42 41 40 39 38 37 36 35 35 35 34
20 20 20 19 20 21 22 23 23 23 24 24 24 25 25 26 26 26 26 25 24 24 24 23 23 23 22 25 29 30 28 27 28 30 32 35 37 37 35 33 33 34 35 36 35 34 34 34 34 35 35 35 36 36 36 37 38 38 39 40 40 41 41 42 42 42 42 42 42 41 41 41 41 41 41 41 41 41 40 39 39 37 36 36 35 35
20 21 21 20 22 24 24 24 24 24 24 24 25 25 26 27 27 26 25 25 25 25 25 25 25 26 28 30 33 33 30 28 28 30 32 35 38 38 35 32 31 33 34 35 35 33 33 34 34 35 35 35 35 35 35 36 37 37 38 39 40 40 41 41 42 42 42 42 42 42 42 41 41 41 41 41 41 40 40 40 39 38 37 37 36 36
22 24 24 24 23 23 23 24 25 25 25 25 25 25 25 26 26 26 26 26 27 27 27 27 28 30 31 32 34 35 33 30 30 30 32 34 35 35 33 30 30 31 34 35 35 34 33 33 34 34 34 34 34 34 35 36 37 37 38 39 40 40 41 42 42 42 42 42 42 42 42 42 42 42 42 41 41 41 40 40 39 39 38 38 37 37
24 25 26 25 24 23 25 26 27 27 26 26 25 24 24 25 26 27 28 28 28 29 29 30 32 34 35 36 37 37 34 31 30 30 28 27 30 34 33 30 30 32 34 35 35 34 33 33 34 34 34 34 34 35 35 36 37 37 38 39 40 41 41 42 42 42 42 42 42 42 42 42 42 42 42 42 42 41 41 40 40 39 39 38 38 38
24 25 26 26 25 24 25 26 27 26 25 25 25 25 25 26 27 28 30 30 30 32 33 35 36 36 36 36 36 35 32 28 26 25 23 17 23 32 33 31 31 32 34 35 35 34 34 34 34 34 34 34 35 35 36 36 37 38 38 39 40 41 41 42 42 42 42 42 42 42 43 43 43 43 43 43 42 42 41 41 40 40 40 39 39 38
24 25 26 25 24 24 25 27 27 26 26 27 27 28 29 29 29 30 32 32 32 32 33 33 32 32 32 33 33 31 29 26 23 23 22 21 26 31 33 31 30 32 34 35 35 34 34 35 35 35 34 35 35 35 36 36 37 38 38 39 40 40 41 41 41 42 42 42 42 43 43 43 43 43 43 43 43 42 42 41 41 41 40 40 40 39
24 24 24 24 25 26 26 28 29 29 30 30 31 31 31 32 32 32 32 32 31 29 29 29 28 28 30 31 30 29 28 26 24 23 22 23 27 31 33 31 30 31 34 35 35 34 34 35 35 35 35 34 34 35 35 36 36 37 38 39 39 40 40 41 41 41 41 42 42 43 43 43 43 43 43 43 43 43 42 42 41 41 41 40 40 40
24 25 26 27 28 30 31 32 33 33 33 32 32 32 32 32 31 30 29 28 27 26 26 26 25 25 28 28 28 28 28 26 24 22 22 22 25 29 33 31 30 31 33 35 34 34 34 34 35 35 34 34 34 34 34 35 36 37 38 38 39 40 40 40 41 41 41 42 42 43 43 43 43 43 43 43 43 43 42 42 42 41 41 41 41 41
26 27 29 30 31 32 32 32 33 33 33 32 31 31 30 31 29 27 25 26 25 24 23 19 17 19 24 25 26 27 28 26 24 23 23 23 25 27 30 31 30 30 31 33 33 33 33 34 34 35 34 34 34 34 34 34 35 36 37 38 38 39 39 40 40 41 41 42 42 43 43 43 43 43 43 43 43 43 43 42 42 41 41 41 40 40
26 27 28 29 30 30 30 30 31 31 30 30 30 29 28 27 26 24 25 25 25 23 22 18 15 13 15 20 25 29 29 28 26 24 24 24 24 25 29 30 29 29 30 32 34 35 34 34 34 35 34 34 33 33 33 33 33 34 35 36 36 37 38 38 39 39 40 40 41 42 43 43 43 43 43 43 43 43 43 43 42 42 41 40 39 38
26 26 27 28 28 28 28 28 29 28 28 28 28 27 26 24 24 24 25 25 25 23 22 22 20 18 18 23 27 30 30 28 26 24 23 23 23 24 29 29 29 28 28 30 33 35 35 34 33 32 32 32 32 31 31 31 31 32 33 33 34 35 35 36 36 37 38 39 40 41 42 42 42 42 42 42 43 43 43 42 42 41 40 39 37 36
25 26 27 27 27 27 27 27 27 27 27 26 26 25 25 24 24 25 26 26 25 24 23 24 24 23 23 23 21 21 23 26 25 22 21 20 21 24 29 29 29 29 27 25 22 22 26 31 31 30 29 30 30 30 29 30 30 31 32 33 34 34 34 35 36 36 37 38 39 40 41 41 41 41 41 42 42 42 41 41 41 40 38 37 36 35
26 27 27 27 26 26 26 26 26 26 26 26 25 25 24 24 24 25 26 25 25 24 24 24 24 25 24 17 10 8 11 24 27 24 23 22 23 26 29 28 29 30 28 22 11 6 14 20 28 31 29 29 29 29 29 30 31 32 32 32 33 33 34 34 35 36 36 37 38 38 39 39 39 40 41 41 41 41 40 40 40 38 37 36 35 34
26 26 26 25 25 25 25 25 25 25 25 25 25 24 24 24 24 24 25 25 25 25 25 25 26 26 26 20 15 12 14 26 31 28 26 25 26 28 30 29 29 31 30 26 19 13 11 8 20 32 31 30 30 30 30 31 31 31 31 30 31 32 32 32 33 34 35 35 35 36 36 37 37 38 39 39 40 40 39 39 39 38 36 34 33 32
25 24 25 25 25 25 25 25 25 25 25 25 25 24 24 24 24 24 24 25 25 26 27 27 27 27 28 27 25 25 28 32 32 31 29 27 27 28 30 30 31 32 31 29 29 26 18 14 21 30 32 31 31 31 31 31 31 30 30 30 30 31 31 31 31 32 32 33 33 34 35 35 36 36 37 37 37 38 38 38 38 38 36 33 31 30
24 24 24 24 24 25 25 25 25 25 24 24 24 24 24 25 25 25 25 25 26 26 27 28 28 28 28 27 28 30 33 34 34 32 30 29 28 28 30 32 32 31 31 30 30 29 26 27 28 28 28 31 32 31 31 31 31 31 30 30 31 31 31 30 30 30 31 32 32 33 34 34 35 35 35 35 34 35 35 36 36 36 35 33 31 29
24 24 24 24 24 24 24 24 24 24 24 24 24 24 24 25 25 25 26 26 26 27 27 28 29 30 30 29 28 29 33 36 36 35 32 31 31 31 32 31 31 30 28 29 29 27 24 28 30 29 26 28 31 32 31 31 31 31 30 30 30 30 30 29 29 29 30 31 32 32 33 33 34 34 34 34 33 33 33 33 33 33 33 33 32 31
23 23 23 23 23 23 24 24 24 24 24 24 25 25 25 25 26 27 27 28 29 29 30 31 31 32 33 33 33 34 37 40 40 38 36 35 34 34 32 32 33 32 29 28 28 25 22 25 30 32 28 22 21 26 31 31 30 29 29 29 29 29 29 29 28 29 30 30 31 32 32 32 31 32 32 33 33 33 34 34 34 34 34 34 34 35
22 22 22 22 23 23 23 24 24 24 24 25 25 26 26 27 28 29 30 31 32 32 33 34 35 35 35 36 37 39 40 42 42 42 40 38 37 36 36 35 36 36 33 29 27 26 24 21 21 23 24 19 17 21 28 30 29 27 27 28 29 29 29 29 28 28 29 30 31 31 31 30 30 29 30 31 32 32 33 34 35 35 35 35 36 37
21 22 22 22 22 23 24 24 24 24 25 25 26 27 29 30 31 32 33 34 35 35 36 36 36 37 38 38 40 42 43 44 45 45 44 42 40 39 39 38 38 38 36 33 32 30 27 18 14 13 13 19 24 28 30 30 29 28 28 29 29 29 29 29 29 30 30 31 32 32 32 31 30 29 29 29 29 29 29 30 32 32 33 34 34 35
21 22 22 23 23 23 23 24 25 26 26 28 29 29 31 32 32 33 33 33 33 34 34 34 35 36 38 39 41 42 43 44 44 45 44 44 42 40 40 38 37 37 36 35 35 34 31 24 17 13 11 15 22 29 32 31 29 29 30 31 31 31 30 29 29 30 30 31 32 32 32 32 31 31 30 28 26 25 26 27 28 29 30 30 30 30
22 22 23 23 23 23 24 25 26 27 29 30 31 31 31 31 31 31 31 31 31 32 33 34 34 35 36 37 38 39 40 41 42 42 42 42 41 39 39 38 37 36 35 34 34 34 32 29 26 25 25 20 20 25 29 30 31 30 30 28 27 28 29 28 28 29 30 31 32 32 32 32 32 31 31 29 28 26 25 26 26 27 28 28 27 27
22 23 23 24 24 25 25 26 27 29 29 30 30 30 30 30 30 30 31 30 30 31 32 33 33 34 34 35 35 37 38 39 39 40 40 41 41 39 38 38 37 35 35 33 33 34 33 31 29 29 29 29 28 27 29 30 31 31 30 27 27 28 30 30 29 30 30 31 31 32 32 32 32 32 32 31 31 29 28 28 28 28 29 29 28 27
23 23 24 25 25 26 27 28 28 29 28 28 28 29 29 29 29 30 32 31 31 32 33 33 33 34 35 36 36 36 35 36 37 38 39 40 40 40 38 36 36 34 33 33 33 34 32 32 31 31 31 30 28 26 27 31 33 32 30 29 30 31 31 31 30 29 29 30 30 31 31 31 31 31 31 31 31 30 30 29 29 29 29 30 29 28
23 24 25 25 26 27 27 27 28 28 28 27 27 28 28 28 29 30 31 32 33 33 34 33 33 34 35 36 36 37 36 36 36 36 36 36 36 36 36 36 35 34 34 33 32 32 33 32 33 33 33 33 31 28 26 29 31 32 31 31 30 27 22 25 27 28 27 28 29 29 29 29 29 29 30 30 30 29 29 28 28 28 28 28 28 27
24 24 25 25 26 26 26 27 27 28 28 28 28 29 30 29 29 30 31 32 33 33 33 34 34 34 34 33 35 36 36 35 34 33 33 33 34 34 34 34 34 34 34 33 32 31 32 32 33 34 34 33 32 30 28 29 29 30 30 30 29 26 22 24 27 28 28 28 28 28 28 28 28 27 29 29 29 29 28 27 27 27 28 28 27 26
24 24 25 25 26 26 26 27 28 28 28 28 29 29 30 30 30 30 30 31 32 33 33 34 33 32 31 31 33 34 35 35 33 32 31 31 31 31 31 32 32 33 33 33 33 31 30 30 32 33 33 32 31 30 30 30 29 30 31 31 30 30 31 31 30 29 28 29 29 29 29 28 27 26 26 27 28 29 29 29 28 28 29 28 27 27
24 24 25 26 26 27 27 28 28 28 28 29 29 30 30 30 30 30 31 32 33 33 34 33 31 29 28 30 32 33 32 32 32 32 32 31 30 30 31 31 32 32 32 32 33 34 33 33 33 33 34 32 31 31 32 31 30 29 30 30 30 30 30 30 30 29 29 29 29 29 29 28 27 26 25 26 28 30 30 30 30 30 30 30 29 29
24 24 25 26 26 27 28 28 28 28 29 29 29 30 31 31 30 31 32 33 33 34 34 33 31 30 30 31 31 31 30 31 32 33 32 30 29 29 31 31 31 32 32 33 33 34 34 35 35 35 33 30 27 28 31 32 31 29 29 29 29 28 27 27 28 28 28 28 28 29 29 27 26 25 25 26 27 28 29 30 30 30 30 30 30 30
24 25 26 26 27 27 28 28 28 29 29 30 30 30 31 31 31 32 32 33 33 33 33 32 31 31 31 32 32 32 31 31 31 32 32 31 30 30 29 29 29 31 31 32 32 33 34 35 36 36 35 30 26 25 29 31 31 31 30 29 28 26 26 27 27 27 27 27 28 28 28 26 25 24 24 25 25 26 28 29 29 29 29 29 30 30
23 24 26 26 26 26 27 28 28 29 29 30 31 31 32 31 31 32 32 32 33 32 31 31 31 30 30 31 32 33 33 32 32 32 31 31 30 30 30 30 31 30 30 30 32 32 33 34 35 36 35 33 31 30 30 31 32 32 31 30 28 27 26 26 27 27 26 26 27 28 28 26 26 25 24 23 22 24 26 28 29 29 29 29 29 30
23 24 25 25 26 27 27 28 28 29 30 31 31 32 33 33 32 31 31 31 31 31 31 31 31 30 30 31 32 32 31 31 31 31 32 31 30 29 30 31 31 31 29 29 30 29 29 28 29 31 33 33 32 31 30 31 31 31 30 29 28 27 26 26 27 27 27 27 27 27 27 26 26 26 24 22 22 23 25 27 28 29 29 28 29 29
24 24 24 25 26 27 27 28 28 29 30 31 32 32 32 32 33 32 31 31 32 32 32 32 31 30 29 30 31 32 31 30 29 30 32 32 30 28 27 28 29 28 25 22 21 20 19 16 17 21 26 29 30 30 29 29 28 27 25 26 27 27 26 26 27 28 28 27 26 26 25 24 24 24 23 22 20 19 19 23 26 29 29 28 27 28
Wind_Direction
302 304 305 307 308 307 305 306 308 308 307 307 307 308 307 307 306 305 304 305 305 305 305 304 303 303 302 302 301 301 299 299 298 298 298 298 298 298 298 298 298 298 298 298 298 297 297 297 297 296 296 296 297 297 298 298 299 299 298 298 297 296 296 295 294 293 293 292 291 290 289 288 286 284 282 280 279 277 276 275 275 276 276 275 274 273
302 303 304 305 305 304 303 304 306 305 305 305 305 305 305 305 304 304 304 304 304 303 302 301 300 300 299 299 299 298 297 297 297 297 297 297 297 297 297 297 298 298 298 298 298 298 298 298 297 297 297 297 296 296 296 296 297 297 297 297 297 296 295 294 294 293 292 291 291 290 289 288 287 285 284 281 279 277 275 274 274 274 274 273 272 272
303 303 303 304 304 302 302 303 304 303 302 302 302 302 302 302 302 301 301 302 302 301 299 298 297 297 296 296 296 296 296 295 295 295 295 295 296 296 297 297 297 298 298 298 298 298 298 298 297 297 297 296 296 295 295 295 295 295 295 295 295 294 294 293 293 292 291 290 290 289 288 288 287 286 285 284 282 280 278 276 275 274 273 272 272 272
301 302 302 305 304 302 300 301 302 302 301 300 300 300 300 299 298 298 299 299 299 298 297 296 296 295 295 295 295 295 294 294 294 294 294 294 295 296 296 297 297 297 298 298 297 297 297 297 296 296 296 295 295 295 294 294 293 293 293 292 292 292 292 292 291 291 290 289 288 287 287 286 285 285 284 284 283 282 280 278 277 275 274 273 272 272
299 300 302 303 303 301 300 301 301 301 301 300 299 299 299 298 297 297 297 297 297 297 296 296 295 294 294 293 293 294 293 293 293 293 294 294 295 295 296 296 296 296 296 296 296 296 296 295 295 295 295 294 294 294 293 293 293 292 292 291 291 291 291 291 290 290 289 289 287 286 285 284 283 283 282 281 281 280 279 278 277 276 274 273 272 271
299 299 300 300 300 300 301 301 301 301 302 301 299 299 298 297 297 296 296 296 296 296 296 295 294 293 293 293 293 294 294 294 294 294 294 294 294 294 295 295 295 294 294 294 294 294 294 294 294 293 293 293 292 292 292 292 291 291 291 291 291 290 290 290 290 289 289 288 288 286 285 284 283 281 280 280 279 278 277 276 276 275 274 273 271 270
298 298 299 299 298 298 299 299 300 300 301 301 301 300 299 298 297 296 296 296 296 296 296 295 294 293 293 293 294 295 296 295 295 295 294 294 294 294 293 293 293 293 293 293 293 293 292 292 292 292 291 291 291 291 290 290 290 290 290 290 290 290 290 290 289 289 289 288 288 287 286 285 283 282 280 279 278 277 276 275 275 274 273 273 272 271
299 299 300 299 299 299 299 298 298 299 300 300 301 302 302 301 299 298 297 296 296 296 296 296 296 295 295 295 296 296 296 296 296 295 295 294 294 293 293 293 292 292 292 291 291 291 291 290 290 290 290 290 289 289 289 289 289 289 288 289 289 289 289 289 289 289 288 288 288 287 287 286 284 283 281 279 278 277 276 275 274 273 273 272 272 271
297 299 299 299 299 300 300 299 298 299 299 299 299 301 302 302 302 301 300 298 297 297 298 298 299 298 297 297 297 297 296 295 295 295 294 294 293 293 292 292 292 291 291 290 290 289 289 288 288 288 288 288 288 288 288 288 288 288 288 288 288 288 288 288 289 289 288 288 287 287 287 287 286 285 283 282 280 279 277 276 274 273 273 272 271 270
294 296 297 298 297 297 298 298 299 301 300 298 297 296 297 299 301 303 303 301 300 300 300 299 300 300 299 299 298 297 297 295 294 293 292 292 291 291 291 291 290 290 289 289 288 288 287 287 287 287 287 287 287 287 287 287 287 287 287 287 287 287 287 288 288 288 289 288 288 288 288 288 287 286 285 283 282 280 278 277 275 274 273 272 271 270
295 295 296 298 298 297 295 296 298 301 301 299 298 296 295 296 299 302 303 303 303 303 302 300 299 299 299 300 299 298 297 296 295 293 292 291 290 290 290 290 289 288 288 288 287 287 286 286 286 286 286 286 286 286 286 287 287 287 287 287 287 287 287 287 288 288 288 289 289 290 289 288 287 285 284 283 281 279 277 275 273 273 272 271 271 271
297 297 298 298 299 299 298 297 298 300 302 301 301 301 299 299 300 301 301 302 303 304 303 301 299 297 297 298 299 299 298 296 295 294 294 293 292 291 291 291 290 289 289 288 287 287 286 286 286 286 286 286 285 285 285 285 286 286 285 286 285 285 286 286 286 286 287 288 288 288 288 288 286 285 285 284 283 281 279 276 274 272 270 270 270 270
296 297 298 298 298 299 300 301 301 302 302 302 301 301 301 302 302 301 299 298 299 301 302 302 300 298 297 297 297 297 297 296 294 294 293 293 292 292 293 292 291 291 291 290 289 287 287 287 286 286 285 285 284 284 284 284 284 284 284 284 284 284 284 284 284 284 284 284 284 284 285 285 285 285 286 286 286 285 284 282 280 277 274 271 269 269
298 299 299 298 298 298 300 301 301 301 300 299 298 298 299 301 302 301 299 298 298 300 301 301 299 299 299 298 297 296 296 295 295 294 293 292 292 293 294 293 292 291 291 290 289 288 287 287 286 285 284 284 283 283 283 283 283 283 283 283 283 283 283 283 283 283 282 282 282 282 282 283 283 283 284 284 284 284 284 284 283 282 280 277 274 271
299 300 299 298 297 297 298 299 298 298 297 298 298 299 299 300 301 301 300 299 301 302 303 302 300 299 298 298 298 297 296 295 295 295 294 293 293 294 295 294 293 292 291 289 288 287 287 286 285 284 284 283 283 282 282 282 282 282 282 282 282 282 282 282 281 281 281 281 281 281 281 281 281 282 282 282 281 281 281 281 281 282 281 280 278 276
296 296 295 295 295 295 296 296 296 296 297 298 299 300 301 301 301 301 301 301 302 304 304 304 303 302 300 299 299 299 299 297 296 296 297 295 295 295 295 294 293 292 290 289 287 287 287 287 285 284 284 283 282 282 281 281 281 281 281 281 281 281 280 280 280 280 280 280 280 280 280 280 280 280 280 280 280 280 279 279 278 278 278 278 278 277
292 292 291 292 292 293 295 296 296 297 298 300 300 300 299 299 300 301 301 301 302 303 302 302 302 303 302 302 301 301 303 302 300 299 297 296 295 295 295 294 292 291 290 288 287 287 287 286 285 284 283 282 282 281 280 280 280 280 280 280 280 280 279 279 279 279 279 279 279 279 279 279 279 279 279 279 279 279 278 277 277 276 276 275 275 275
289 289 289 290 292 294 297 298 299 299 300 300 301 301 300 299 299 300 299 299 300 299 299 298 296 295 297 300 300 301 304 303 301 299 297 295 295 295 295 293 291 289 288 287 287 286 286 285 284 284 283 282 281 281 280 280 280 280 279 279 279 279 279 278 278 278 278 278 278 278 278 278 278 278 279 279 278 278 278 277 276 275 274 273 273 272
290 291 292 293 295 297 298 298 298 299 300 300 301 301 300 299 299 298 297 296 295 294 294 294 293 292 293 293 295 298 302 302 300 297 296 294 294 295 295 293 290 288 287 286 286 287 286 286 285 284 283 283 282 282 281 281 280 280 279 279 279 279 278 278 278 277 277 277 277 277 277 277 277 277 277 278 278 277 277 276 275 274 273 273 271 271
296 295 294 296 297 297 295 294 294 295 297 298 299 298 297 297 297 296 294 294 292 291 291 291 290 290 291 291 293 296 300 300 298 295 293 292 292 293 294 292 290 288 287 286 287 288 288 287 286 286 285 284 283 283 282 281 281 280 280 280 279 279 278 278 277 277 277 276 276 276 275 275 275 275 276 276 276 276 276 275 275 274 273 272 271 269
295 292 290 290 292 291 291 291 292 293 294 295 295 294 293 293 294 294 293 293 293 292 291 289 288 289 290 291 292 294 297 297 295 293 292 291 291 291 293 292 291 289 288 288 288 289 289 288 287 287 286 285 285 284 283 283 282 282 281 281 280 280 279 278 278 277 277 276 276 275 274 274 274 274 274 275 275 275 274 274 273 273 272 271 270 269
287 286 286 287 285 284 285 287 290 291 292 291 290 288 288 290 291 292 293 293 292 291 290 288 288 288 289 289 290 292 294 292 290 288 289 289 289 290 293 294 293 290 289 289 290 291 290 289 288 287 286 286 286 285 285 284 284 283 282 282 281 280 280 279 278 277 276 276 275 274 274 273 273 273 273 273 273 273 273 273 272 271 270 269 268 267
281 281 284 285 283 282 283 286 289 290 290 288 285 283 283 285 286 287 290 290 289 289 288 288 288 288 288 288 289 290 292 291 288 286 286 286 288 291 294 295 293 290 288 289 291 292 291 290 288 288 287 287 286 286 285 285 284 284 283 282 282 281 280 279 278 277 276 276 275 274 273 273 272 272 272 272 272 272 272 271 271 270 269 268 267 266
281 282 285 285 285 285 286 288 290 291 291 290 289 287 286 286 285 286 288 288 288 288 289 290 291 290 290 290 291 292 293 293 292 289 286 285 286 289 292 294 293 290 289 289 291 292 291 290 288 288 288 287 286 286 285 284 284 283 283 282 282 281 281 280 279 278 277 276 275 274 273 273 272 272 271 271 271 271 271 271 270 269 268 267 266 265
286 286 287 287 288 288 289 289 290 291 292 293 293 293 292 292 291 291 291 291 291 292 293 294 293 292 293 294 294 293 293 294 292 289 286 285 286 288 291 292 292 290 289 290 291 291 291 289 288 288 287 286 286 285 285 284 284 283 283 282 282 281 280 280 279 278 277 276 275 274 273 272 272 271 271 271 270 270 270 270 269 269 268 267 266 265
288 288 288 289 289 289 289 290 290 291 292 292 293 294 295 296 296 296 295 294 294 295 295 294 292 292 293 294 294 293 295 295 294 290 287 286 287 288 290 291 290 289 289 290 291 291 290 288 288 288 287 287 286 285 285 284 283 283 282 282 281 281 280 279 278 278 277 276 275 274 273 272 272 271 271 270 270 269 269 269 268 268 268 267 266 265
289 289 289 289 290 290 290 291 291 292 292 293 293 294 296 298 298 296 294 293 295 295 294 293 292 293 294 294 293 294 296 297 295 292 288 286 285 286 288 290 290 289 289 290 290 290 289 288 288 288 288 287 286 285 284 283 283 282 281 281 281 280 279 278 277 276 275 274 274 273 273 272 272 271 271 270 270 269 268 268 268 267 267 267 266 265
291 290 291 291 291 292 292 293 293 294 294 294 294 295 296 296 295 293 291 293 295 294 291 290 290 292 293 293 293 294 295 295 294 292 290 286 283 283 287 290 290 290 290 291 291 290 288 286 286 287 287 286 286 285 284 283 282 282 282 281 281 280 279 278 277 276 275 274 274 273 273 273 272 271 271 270 270 269 268 267 267 266 266 266 265 264
294 294 293 294 294 294 294 294 294 294 294 294 294 294 294 292 290 288 289 292 293 292 288 287 287 288 289 291 293 294 293 292 292 293 293 287 283 283 287 290 291 290 291 293 293 292 288 286 285 285 285 285 285 285 284 284 283 283 283 283 283 282 281 280 279 277 276 275 275 274 273 273 272 272 271 271 271 270 268 267 266 265 265 264 262 262
299 298 297 296 296 296 295 295 294 294 294 294 294 293 292 289 286 284 286 288 288 286 285 285 286 287 289 292 294 293 292 292 294 297 298 292 286 286 290 290 289 289 291 293 294 292 289 287 286 286 286 286 286 285 285 285 285 285 285 284 284 283 282 281 280 279 278 277 276 275 274 273 272 272 272 272 271 270 269 267 266 264 263 261 260 259
302 301 300 299 298 297 297 296 295 295 295 294 293 292 290 287 284 282 283 283 283 282 282 283 285 286 288 291 292 290 290 293 296 299 299 293 287 287 290 289 289 288 289 288 289 293 291 291 290 289 288 287 286 286 285 285 285 285 284 283 282 282 281 280 280 279 278 277 276 275 274 273 272 272 272 272 272 271 270 268 265 263 261 259 258 257
302 301 300 299 299 298 298 297 296 295 295 294 293 291 289 286 283 282 281 281 281 281 281 282 284 285 285 284 282 280 285 291 294 297 295 291 287 286 288 288 288 288 288 283 280 281 289 293 293 292 290 287 286 285 284 284 283 283 282 281 281 281 280 280 279 279 278 277 276 275 274 274 273 272 272 272 272 271 270 268 265 262 260 257 255 254
301 300 299 299 298 298 297 296 296 295 294 293 292 291 290 288 285 283 281 281 281 281 282 283 284 285 285 283 281 281 283 287 291 293 293 290 288 287 287 287 287 288 288 284 280 278 277 281 288 290 289 287 285 284 283 283 281 280 280 280 280 280 280 280 279 278 278 277 276 276 275 275 274 273 272 271 270 269 269 269 266 263 259 257 254 253
300 300 299 299 299 298 298 297 296 295 295 294 293 291 290 290 288 286 284 283 281 281 280 281 282 283 284 285 284 284 285 286 289 291 291 289 287 286 286 286 286 287 287 286 284 281 278 279 283 287 288 287 285 283 282 282 281 280 278 278 278 278 279 279 278 277 277 277 276 275 275 274 274 274 273 271 269 268 268 268 267 265 261 259 256 255
301 300 300 300 299 299 299 298 298 297 295 295 294 293 292 291 290 289 287 286 284 282 280 279 279 280 281 283 284 284 285 287 288 289 289 286 285 284 285 284 284 285 285 284 284 283 281 280 281 283 285 286 285 283 281 281 280 279 277 276 275 275 276 276 276 276 276 276 275 274 274 274 274 274 273 272 270 268 267 267 266 265 264 262 260 259
301 301 300 300 300 300 299 299 299 298 297 297 296 295 294 293 292 291 289 288 286 285 282 280 279 278 277 278 278 280 282 285 287 287 285 283 282 282 282 281 282 282 282 281 281 281 280 281 281 282 282 283 284 284 283 281 280 278 276 275 274 274 274 274 274 274 275 275 274 273 273 273 273 272 272 271 270 269 268 267 266 265 264 264 263 261
301 301 301 301 301 301 301 300 300 299 299 299 299 298 297 295 294 292 290 288 287 285 284 282 280 278 276 274 274 274 276 279 282 282 281 279 277 277 278 279 279 279 279 278 278 278 278 280 281 281 280 278 280 283 284 284 282 278 275 275 275 274 273 272 272 272 273 273 273 273 273 273 273 272 272 272 271 270 269 267 266 265 264 264 263 263
302 301 301 302 302 302 302 301 301 301 301 301 300 300 298 296 294 292 291 289 287 285 283 282 280 280 278 275 273 273 273 275 276 277 277 276 274 273 275 276 276 276 275 274 275 276 277 277 278 278 275 278 279 280 282 284 282 279 277 276 275 273 272 271 271 271 270 271 271 272 272 272 273 273 273 274 273 272 270 268 266 265 264 264 264 264
302 302 302 303 303 303 302 302 302 302 302 302 301 300 298 296 294 292 290 289 287 285 283 282 280 279 279 278 277 275 275 274 275 275 275 274 272 271 272 273 274 274 273 272 272 273 274 274 274 275 276 280 281 280 280 280 279 279 279 278 276 273 271 269 268 268 268 268 268 269 270 271 272 272 273 273 273 272 271 270 269 267 266 265 265 265
303 303 302 303 303 303 302 302 302 302 302 302 301 300 299 297 295 294 293 292 291 289 287 285 284 282 281 280 279 278 277 277 276 275 275 273 272 270 270 271 272 273 274 272 271 271 271 271 271 272 274 276 279 280 280 279 277 277 278 278 276 273 271 268 267 266 265 265 265 266 267 269 270 271 271 271 270 270 270 271 271 270 268 266 266 266
304 304 303 304 304 304 303 302 302 302 302 301 301 300 300 299 299 299 298 296 295 294 293 292 290 288 285 283 281 281 279 279 278 277 276 274 273 271 269 270 271 272 274 273 272 272 271 271 272 272 274 275 276 277 277 277 277 276 275 274 273 273 272 270 267 265 264 263 263 263 264 266 267 268 269 269 268 267 267 268 269 269 269 266 264 264
304 304 303 304 305 305 304 303 303 303 302 301 300 300 300 300 300 300 301 300 298 298 298 297 295 293 292 290 288 285 283 281 280 278 277 276 275 273 271 270 271 272 273 274 275 274 273 272 273 274 275 276 277 277 277 277 276 275 273 271 272 273 273 270 266 264 262 262 261 261 261 263 264 266 267 268 267 266 266 265 265 265 265 264 262 261
303 303 303 304 304 305 305 304 305 305 305 303 302 301 300 299 299 299 300 299 299 299 299 297 296 295 294 293 292 291 288 286 283 280 279 278 277 275 274 273 272 272 273 275 276 275 275 273 272 273 274 275 275 275 275 276 276 274 272 270 270 270 271 269 267 264 261 260 260 259 259 260 262 264 266 267 267 267 266 264 263 262 262 261 261 261
302 302 303 305 305 306 306 306 307 306 305 303 302 302 301 300 299 298 298 298 298 298 297 298 297 296 294 293 293 293 292 290 288 285 283 281 280 279 277 276 275 273 272 273 274 275 276 274 273 273 274 274 273 273 273 275 275 274 272 270 267 265 264 266 267 266 263 261 259 258 258 258 260 263 266 267 268 268 267 265 263 262 262 262 263 264
303 304 305 306 308 308 307 307 307 306 305 303 302 302 302 301 301 300 298 297 298 298 297 298 298 297 295 294 294 295 294 294 292 290 288 286 284 283 281 279 277 275 273 272 271 272 273 275 276 276 276 274 273 272 273 274 274 274 273 271 268 265 263 264 264 263 262 260 259 258 258 258 260 263 265 267 268 268 267 266 265 263 263 263 264 265
305 306 307 308 308 308 307 307 306 306 305 304 303 302 303 303 301 300 299 299 298 298 298 297 297 295 294 295 296 296 296 295 295 295 294 292 290 288 286 284 282 279 276 274 272 271 270 272 274 276 277 276 273 271 271 271 272 273 272 271 269 267 265 263 261 259 258 257 257 257 257 258 259 260 262 264 266 267 266 265 264 263 262 263 263 264
307 307 308 308 308 307 307 307 307 307 306 305 304 303 303 303 302 301 301 300 299 299 299 298 296 294 293 294 295 295 296 296 297 297 297 296 294 293 292 290 287 284 281 278 275 272 269 269 270 271 272 273 273 271 271 270 270 270 270 270 268 266 264 262 260 258 255 254 254 255 255 256 256 257 259 262 265 266 266 264 263 261 261 261 262 263
308 308 308 308 307 307 307 307 308 307 307 306 304 303 303 302 302 302 301 300 300 299 299 298 297 295 294 294 294 294 295 296 297 298 298 298 298 296 295 293 291 289 285 281 278 275 273 270 269 268 267 268 269 270 271 270 269 268 268 268 267 265 264 262 261 259 256 253 252 251 251 251 252 254 258 261 264 265 265 264 263 261 260 260 261 262
307 307 307 307 306 306 306 307 307 307 306 306 305 304 304 302 302 301 300 300 299 299 298 297 297 296 296 295 296 296 296 296 297 298 299 299 299 299 298 297 295 293 290 286 284 282 278 274 270 267 264 262 263 266 268 268 268 267 266 265 265 263 263 262 261 259 256 253 251 249 247 247 248 251 255 259 262 264 265 265 264 262 261 259 259 260
307 306 307 306 306 306 306 306 306 306 306 306 305 304 304 304 303 301 299 299 299 298 297 296 296 296 296 296 297 298 298 299 299 300 300 300 300 299 298 298 298 297 294 292 290 288 285 281 276 270 266 261 258 259 262 265 265 265 264 262 261 260 260 260 260 258 255 253 251 248 246 245 247 249 251 254 258 262 264 265 265 264 262 261 260 260
308 307 307 306 306 306 306 306 306 305 305 305 305 304 304 304 304 303 301 301 301 300 299 297 296 295 295 296 297 299 300 300 300 300 301 301 300 299 297 298 298 297 296 294 292 290 288 286 283 280 277 271 263 258 257 260 263 263 262 260 259 257 256 257 257 256 253 251 250 248 246 245 245 246 248 250 254 259 262 264 265 265 263 262 262 262